Regional Weather Roundup
Issued by NWS

Home | Current Version | Previous Version | Graphics & Text | Print | Product List | Glossary Off
Versions: 1 2 3 4 5 6 7 8 9 10 11 12 13 14 15 16 17 18 19 20 21 22 23 24 25 26 27 28 29 30 31 32 33 34 35 36 37 38 39 40 41 42 43 44 45 46 47 48 49 50

000
ASUS43 KDMX 022304
RWRIA

WEATHER ROUNDUP FOR IOWA
NATIONAL WEATHER SERVICE DES MOINES IA
  ISSUED BY NWS QUAD CITIES IA IL
500 PM CST MON MAR 02 2015

NOTE: "FAIR" INDICATES FEW OR NO CLOUDS BELOW 12,000 FEET WITH NO
SIGNIFICANT WEATHER AND/OR OBSTRUCTIONS TO VISIBILITY.

* - THESE STATIONS ARE NOT NWS STATIONS...THUS NOT UNDER NWS
QUALITY CONTROL.  THEY ALSO DO NOT REPORT WEATHER SUCH
AS PRECIPITATION OR FOG.

IAZ001>003-012>014-020>022-031>034-043>046-030000-
   NORTHWEST IOWA

CITY           SKY/WX    TMP DP  RH WIND       PRES   REMARKS
CARROLL *      CLOUDY    32  19  59 SE17      30.19F WCI  21
CHEROKEE *     CLOUDY    31  21  66 SE12      30.16F WCI  22
DENNISON *     CLOUDY    34  21  60 SE12      30.14F WCI  25
LE MARS *      CLOUDY    32  21  64 SE13      30.12F WCI  22
ORANGE CITY *  CLOUDY    32  19  59 SE10G16   30.12F WCI  24
SHELDON *      CLOUDY    28  19  69 SE20      30.12F WCI  15
SIOUX CITY     CLOUDY    37  22  54 SE15      30.11F WCI  28
SPENCER        CLOUDY    28  19  69 SE16      30.16F WCI  16
STORM LAKE *   CLOUDY    28  21  74 SE15      30.16F WCI  17
$$

IAZ055>058-069>071-079>083-090>094-030000-
   SOUTHWEST IOWA

CITY           SKY/WX    TMP DP  RH WIND       PRES   REMARKS
ATLANTIC *     CLOUDY    37  18  44 SE12G22   30.18F WCI  30
AUDUBON *      CLOUDY    34  19  55 E14       30.19F WCI  24
CLARINDA *     MOSUNNY   37  19  48 SE12G20   30.20F WCI  30
COUNCIL BLFS * MOSUNNY   37  21  52 SE17G24   30.13F WCI  28
CRESTON *      MOSUNNY   34  14  44 SE16G23   30.20F WCI  23
HARLAN *       CLOUDY    37  21  52 SE15      30.19F WCI  28
LAMONI         MOSUNNY   33  19  56 SE8       30.22F WCI  26
RED OAK *      SUNNY     37  18  44 SE14G21   30.18F WCI  29
SHENANDOAH *   MOSUNNY   39  19  45 SE15G22   30.18F WCI  31
$$

IAZ047>049-059>061-072>074-084-030000-
   CENTRAL IOWA

CITY           SKY/WX    TMP DP  RH WIND       PRES   REMARKS
AMES           CLOUDY    27  16  63 SE10      30.28F WCI  17
ANKENY *       CLOUDY    30  18  59 SE13      30.28F WCI  20
BOONE *        CLOUDY    28  19  69 SE16      30.23F WCI  17
CHARITON *     CLOUDY    34  14  44 SE14      30.25F WCI  24
DES MOINES     CLOUDY    32  15  49 E12       30.26F WCI  23
GRINNELL *     CLOUDY    26  17  69 SE7       30.31F WCI  19
KNOXVILLE *    CLOUDY    32  16  51 SE10      30.27F WCI  24
MARSHALLTOWN   CLOUDY    25  15  66 SE12      30.30F WCI  14
NEWTON *       CLOUDY    27  19  74 SE10      30.30F WCI  17
PELLA *        CLOUDY    30  20  66 SE9       30.32F WCI  22
PERRY *          N/A     32  21  64 SE15      30.24F WCI  21
$$

IAZ004>006-015-016-023>025-035-036-030000-
   NORTH CENTRAL IOWA

CITY           SKY/WX    TMP DP  RH WIND       PRES   REMARKS
ALGONA *       CLOUDY    27  19  74 SE14G21   30.22F WCI  15
CLARION *      CLOUDY    25  21  86 SE14      30.24F WCI  13
ESTHERVILLE    CLOUDY    25  17  72 SE17      30.18F WCI  12
FORT DODGE *   CLOUDY    27  18  69 SE9       30.23F WCI  17
MASON CITY     CLOUDY    21  14  74 S12       30.28F WCI   9
FOREST CITY *  CLOUDY    23  16  74 SE13      30.24F WCI  11
WEBSTER CITY * CLOUDY    27  19  74 SE16      30.23F WCI  14
IOWA FALLS *   CLOUDY    23  16  75 SE9       30.29F WCI  13
$$

IAZ007>011-017>019-026>030-037>042-050>054-066-030000-
   NORTHEAST IOWA

CITY           SKY/WX    TMP DP  RH WIND       PRES   REMARKS
CEDAR RAPIDS   CLOUDY    25  17  72 S8        30.32F WCI  16
CHARLES CITY * CLOUDY    21  12  68 SE8       30.30F WCI  12
CLINTON *      CLOUDY    25  16  68 SE8       30.39F WCI  16
DECORAH *      CLOUDY    23  12  63 SE6       30.29F WCI  16
DUBUQUE        CLOUDY    24  16  71 S7        30.33F WCI  16
MONTICELLO *   CLOUDY    25  18  74 SE7       30.33F WCI  17
OELWEIN *      CLOUDY    23  14  68 SE7       30.31F WCI  15
WATERLOO       CLOUDY    23  13  65 S8        30.32F WCI  14
$$

IAZ064-065-067-068-078-030000-
   EAST CENTRAL IOWA

CITY           SKY/WX    TMP DP  RH WIND       PRES   REMARKS
DAVENPORT      CLOUDY    26  16  65 SE10      30.36F WCI  16
IOWA CITY      CLOUDY    26  17  68 SE7       30.37F WCI  18
MT. PLEASANT * CLOUDY    30  18  60 S6        30.36S WCI  24
MUSCATINE *    CLOUDY    28  16  59 SE6       30.38F WCI  22
QUAD CITIES    CLOUDY    27  16  63 SE8       30.37F WCI  19
$$

IAZ062-063-075>077-085>089-095>099-030000-
   SOUTHEAST IOWA

CITY           SKY/WX    TMP DP  RH WIND       PRES   REMARKS
BURLINGTON     CLOUDY    29  18  63 SE6       30.36F WCI  23
FAIRFIELD *    CLOUDY    30  16  55 SE8       30.34F WCI  23
FORT MADISON * MOCLDY    30  18  59 SE6       30.36F WCI  24
KEOKUK *       PTCLDY    30  18  59 E7        30.35F WCI  23
OSKALOOSA *    CLOUDY    29  18  64 SE8       30.32F WCI  21
CENTERVILLE *  FAIR      32  19  59 SE8       30.30F WCI  25
OTTUMWA        CLOUDY    30  17  58 SE8       30.32F WCI  22
WASHINGTON *   CLOUDY    28  14  54 SE6       30.35F WCI  22
$$

ABBREVIATIONS USED IN REMARKS
   TC - TEMPERATURES IN CELSIUS
  WCI - WIND CHILL INDEX
   HX - HEAT INDEX
  VSB - VISIBILITY
$$



USA.gov is the U.S. government's official web portal to all federal, state and local government web resources and services.